Lexington Weather

Lexington, Massachusetts, USA

34°F
4/16/2021 9:49am 
  • Lexington Conditions: Snow, Mist, Overcast
  • Temperature: 33.8°F / 1.0°CColder 2.3°F than last hour.
  • Dew Point: 32.5°FDecreased 2.0°Fsince last hour.
  • Relative Humidity: 95%Increased 1.0% since last hour.
  • Wind: Calm, 10-min avg: Calm, gust: None
  • Barometer: 29.50 in Steady
  • Visibility: ½ mile
  • Snow Today: 0.3 in
  •   

Regional Weather Roundup
for Boston / Norton, MA

        
000
ASUS41 KBOX 151304
RWRBOX

REGIONAL WEATHER ROUNDUP
NATIONAL WEATHER SERVICE BOSTON/NORTON MA
900 AM EDT THU APR 15 2021

NOTE:  "FAIR" INDICATES FEW OR NO CLOUDS BELOW 12,000 FEET WITH NO 
SIGNIFICANT WEATHER AND/OR OBSTRUCTIONS TO VISIBILITY.

MAZALL-151400-
EASTERN MASSACHUSETTS
  
CITY           SKY/WX    TMP DP  RH WIND       PRES   REMARKS
BOSTON         CLOUDY    50  39  66 E9        29.88S                  
BEVERLY        NOT AVBL                                               
LAWRENCE       CLOUDY    51  33  50 VRB6      29.88F                  
BEDFORD        PTSUNNY   51  36  56 E10       29.85F                  
BLUE HILL        N/A     47  32  56 SE10      29.84S                  
NORWOOD        CLOUDY    52  34  50 SE7       29.86F                  
MARSHFIELD     PTSUNNY   50  39  66 SE10      29.88S                  
PLYMOUTH       CLOUDY    50  32  50 SE7       29.87S                  
TAUNTON          N/A    N/A N/A N/A MISG      29.85F                  
NEW BEDFORD    CLOUDY    49  38  65 SE13      29.86F                  
$$

MAZALL-151400-
CAPE COD AND THE ISLANDS
  
CITY           SKY/WX    TMP DP  RH WIND       PRES   REMARKS
FALMOUTH       SUNNY     50  30  46 SE14      29.88F                  
HYANNIS        CLOUDY    50  34  54 SE9       29.87S                  
CHATHAM        MOSUNNY   48  35  60 SE6       29.91S                  
PROVINCETOWN   MOSUNNY   51  35  54 SE10      29.90                   
NANTUCKET      CLOUDY    48  36  63 SE12      29.89S                  
MARTHAS VNYRD  CLOUDY    50  37  61 E10       29.86F                  
$$
 
MAZALL-151400-
CENTRAL AND WESTERN MASSACHUSETTS
  
CITY           SKY/WX    TMP DP  RH WIND       PRES   REMARKS
WORCESTER      CLOUDY    45  39  79 SE8       29.83S                  
FITCHBURG      CLOUDY    49  42  77 SE8       29.85F                  
ORANGE         CLOUDY    48  42  80 SE6       29.82F                  
SPRINGFIELD    CLOUDY    49  41  74 SE7       29.80F                  
WESTFIELD      LGT RAIN  48  42  80 E5        29.80F                  
NORTH ADAMS    LGT RAIN  46  44  93 E8        29.77F FOG              
PITTSFIELD     RAIN      44  43  96 E6        29.75F FOG              
$$
 
RIZALL-151400-
RHODE ISLAND
  
CITY           SKY/WX    TMP DP  RH WIND       PRES   REMARKS
PROVIDENCE     CLOUDY    48  40  73 SE7       29.86F                  
NEWPORT        CLOUDY    45  39  79 SE7       29.85F HAZE             
BLOCK ISLAND   CLOUDY    45  41  86 SE12      29.85S                  
SMITHFIELD     CLOUDY    47  42  83 CALM      29.86R                  
WESTERLY       CLOUDY    45  42  89 SE12      29.84F                  
$$
 
CTZALL-151400-
CONNECTICUT
  
CITY           SKY/WX    TMP DP  RH WIND       PRES   REMARKS
BRADLEY INTL   LGT RAIN  49  42  77 SE6       29.80F                  
HARTFORD       CLOUDY    49  43  80 SE7       29.81F                  
BRIDGEPORT     LGT RAIN  49  48  97 E9        29.78F FOG              
DANBURY        CLOUDY    51  46  83 E3        29.79S                  
GROTON         CLOUDY    47  44  90 E14       29.82F                  
NEW HAVEN      LGT RAIN  50  49  96 E9        29.79S FOG              
CHESTER        FOG       46  46 100 SE9       29.80S VSB 3/4          
MERIDEN        RAIN      47  45  93 E3        29.80F FOG              
WILLIMANTIC    CLOUDY    46  42  86 SE6       29.83F                  
OXFORD         LGT RAIN  45  45 100 E5        29.79F FOG              
$$

MEZ002-015-021-024-NHZ003-005-008-011-012-014-VTZ005-008-151400-
NORTHERN NEW ENGLAND
  
CITY           SKY/WX    TMP DP  RH WIND       PRES   REMARKS
PORTLAND ME    MOSUNNY   49  39  68 S5        29.91S                  
BANGOR ME      MOSUNNY   46  36  68 CALM      29.93S                  
CONCORD NH     CLOUDY    47  40  76 SE5       29.86F                  
MANCHESTER NH  PTSUNNY   49  39  68 E6        29.85F                  
NASHUA NH      CLOUDY    48  42  80 SE8       29.87F                  
PORTSMOUTH NH  PTSUNNY   51  32  48 SE12      29.90S                  
JAFFREY NH     CLOUDY    47  41  80 VRB7      29.82F                  
KEENE NH         N/A     49  41  74 SE3       29.81F                  
BURLINGTON VT  LGT RAIN  54  43  66 SE12      29.73F                  
MT. WASHINGTON FOG       32  32 100 SE25        N/A  VSB 1/16WCI  19  
$$

NYZ052-076-151400-
EASTERN NEW YORK
  
CITY           SKY/WX    TMP DP  RH WIND       PRES   REMARKS
ALBANY         DRIZZLE   49  46  90 SE10      29.74F                  
NEW YORK CITY  CLOUDY    50  46  86 NE7       29.77S FOG              
$$
 
ANZALL-151400-
MARINE OBSERVATIONS
  
STATION/POSITION TIME  TEMP    WIND        PRES    VSBY  WAVE
                       AIR SEA DIR/SP/G                  HT/PER
                 (UTC) (F)     (DEG/KT/KT) (MB)    (MI)  (FT/S)
BOSTON BUOY      1240   45 45  130/ 10/ 12 1012.6S
BUZZARDS BAY     1200          120/ 13/ 13 1012.3F
NANTUCKET SOUND  1240      47                N/A
MASS BAY-STELLWA 1204   46     140/  8/ 10 1011.2F  1 7/8  5/11
ISLE OF SHOALS   1200   44     120/  7/  8 1011.9F
S OF BLOCK IS    1226      45                N/A           3/11
$$

......................KEY.........................
  SKY/WX - SKY CONDITION/PRESENT WEATHER
  TMP    - TEMPERATURE IN FAHRENHEIT
  DWPT   - DEWPOINT IN FAHRENHEIT
  RH     - RELATIVE HUMIDITY IN PERCENT
  WIND   - DIRECTION AND SPEED IN MPH
  PRES   - MEAN SEA LEVEL PRESSURE IN INCHES OF HG
  WCI    - WIND CHILL INDEX
  VSB    - VISIBILITY IN MILES
  HX     - HEAT INDEX
  TC     - TEMPERATURE IN CELSIUS
  VRB    - VARIABLE WIND DIRECTION
  N/A    - NOT AVAILABLE
  
      

Other recent Regional Weather Roundups

Fri Apr 16, 9:04am

Fri Apr 16, 8:04am

Fri Apr 16, 7:04am

Fri Apr 16, 6:04am

Fri Apr 16, 5:04am

Fri Apr 16, 4:04am

Fri Apr 16, 3:04am

Fri Apr 16, 2:04am

Fri Apr 16, 1:04am

Fri Apr 16, 12:04am

Thu Apr 15, 11:05pm

Thu Apr 15, 10:04pm

Thu Apr 15, 9:04pm

Thu Apr 15, 8:04pm

Thu Apr 15, 7:05pm

Thu Apr 15, 6:04pm

Thu Apr 15, 5:05pm

Thu Apr 15, 4:04pm

Thu Apr 15, 3:05pm

Thu Apr 15, 2:04pm

Thu Apr 15, 1:05pm

Thu Apr 15, 12:04pm

Thu Apr 15, 11:04am

Thu Apr 15, 10:05am

Thu Apr 15, 8:04am

Thu Apr 15, 7:04am

Thu Apr 15, 6:04am

Thu Apr 15, 5:04am

Thu Apr 15, 4:04am

Thu Apr 15, 3:04am

Thu Apr 15, 2:04am

Thu Apr 15, 1:04am

Thu Apr 15, 12:04am

Wed Apr 14, 11:04pm

Wed Apr 14, 10:04pm

Wed Apr 14, 9:04pm

Wed Apr 14, 8:04pm

Wed Apr 14, 7:04pm

Wed Apr 14, 6:04pm

Wed Apr 14, 5:05pm

Wed Apr 14, 4:04pm

Wed Apr 14, 3:05pm

Wed Apr 14, 2:04pm

Wed Apr 14, 1:05pm

Wed Apr 14, 12:04pm

Wed Apr 14, 11:04am

Wed Apr 14, 10:04am

Wed Apr 14, 9:04am

Wed Apr 14, 8:04am

Wed Apr 14, 7:04am

Wed Apr 14, 6:04am

Wed Apr 14, 5:04am

Wed Apr 14, 4:04am

Wed Apr 14, 3:04am

Wed Apr 14, 2:04am

Wed Apr 14, 1:04am

Wed Apr 14, 12:04am

Tue Apr 13, 11:04pm

Tue Apr 13, 10:05pm

Tue Apr 13, 9:05pm

Tue Apr 13, 8:05pm

Tue Apr 13, 7:04pm

Tue Apr 13, 6:04pm

Tue Apr 13, 5:05pm

Tue Apr 13, 4:04pm

Tue Apr 13, 3:04pm

Tue Apr 13, 2:05pm

Tue Apr 13, 1:04pm

Tue Apr 13, 12:05pm

Tue Apr 13, 11:05am

Tue Apr 13, 10:04am

Tue Apr 13, 9:04am

Tue Apr 13, 8:04am

Tue Apr 13, 7:04am

Tue Apr 13, 6:04am

Tue Apr 13, 5:04am

Tue Apr 13, 4:04am

Tue Apr 13, 3:04am

Tue Apr 13, 2:04am

Tue Apr 13, 1:04am

Tue Apr 13, 12:05am

Mon Apr 12, 11:04pm

Mon Apr 12, 10:04pm

Mon Apr 12, 9:04pm

Mon Apr 12, 8:04pm

Mon Apr 12, 7:05pm

Mon Apr 12, 6:04pm

Mon Apr 12, 5:04pm

Mon Apr 12, 4:04pm

Mon Apr 12, 3:05pm

Mon Apr 12, 2:04pm

Mon Apr 12, 1:05pm

Mon Apr 12, 12:04pm

Mon Apr 12, 11:04am

Mon Apr 12, 10:04am

Mon Apr 12, 9:04am

Mon Apr 12, 8:04am

Mon Apr 12, 7:04am

Mon Apr 12, 6:04am

Mon Apr 12, 5:04am

Mon Apr 12, 4:04am

Mon Apr 12, 3:04am

Mon Apr 12, 2:04am

Mon Apr 12, 1:05am

Mon Apr 12, 12:04am

Sun Apr 11, 11:04pm

Sun Apr 11, 10:04pm

Sun Apr 11, 9:04pm

Sun Apr 11, 8:04pm

Sun Apr 11, 7:04pm

Sun Apr 11, 6:05pm

Sun Apr 11, 5:05pm

Sun Apr 11, 4:04pm

Sun Apr 11, 3:05pm

Sun Apr 11, 2:05pm

Sun Apr 11, 1:05pm

Sun Apr 11, 12:04pm

Sun Apr 11, 11:05am

Sun Apr 11, 10:05am

Sun Apr 11, 9:04am

Sun Apr 11, 8:04am

Sun Apr 11, 7:04am

Sun Apr 11, 6:04am

Sun Apr 11, 5:04am

Sun Apr 11, 4:04am

Sun Apr 11, 3:04am

Sun Apr 11, 2:04am

Sun Apr 11, 1:05am

Sun Apr 11, 12:04am

Sat Apr 10, 11:05pm

Sat Apr 10, 10:04pm

Sat Apr 10, 9:04pm

Sat Apr 10, 8:04pm

Sat Apr 10, 7:05pm

Sat Apr 10, 6:04pm

Sat Apr 10, 5:04pm

Sat Apr 10, 4:04pm

Sat Apr 10, 3:04pm

Sat Apr 10, 2:05pm

Sat Apr 10, 1:04pm

Sat Apr 10, 12:04pm

Sat Apr 10, 11:04am

Sat Apr 10, 10:04am

Sat Apr 10, 9:04am

Sat Apr 10, 8:04am

Sat Apr 10, 7:04am

Sat Apr 10, 6:04am

Sat Apr 10, 5:04am

Sat Apr 10, 4:04am

Sat Apr 10, 3:04am

Sat Apr 10, 2:04am

Sat Apr 10, 1:05am

Sat Apr 10, 12:04am

Fri Apr 9, 11:04pm

Fri Apr 9, 10:05pm

Fri Apr 9, 9:04pm

Fri Apr 9, 8:05pm

Fri Apr 9, 7:05pm

Fri Apr 9, 6:04pm

Fri Apr 9, 5:04pm

Fri Apr 9, 4:05pm

Fri Apr 9, 3:05pm

Fri Apr 9, 2:04pm

Fri Apr 9, 1:04pm

Fri Apr 9, 12:04pm

Fri Apr 9, 11:05am

Fri Apr 9, 10:04am

Meta data:

ID: e8728cb5-76e1-4225-a18d-caa023f8a875
Link: https://api.weather.gov/products/e8728cb5-76e1-4225-a18d-caa023f8a875